STARLINK-6355, 57356

Orbit data source: Space-Track

STARLINK-6355, 57356 is a payload satellite owned by SpaceX/Seattle (US) in LEO that was launched on Sun, 16 Jul 2023 UTC via an FALCON 9 launch vehicle from the Air Force Eastern Test Range (AFETR). Payload-class satellites include a variety of spacecraft equipped with specific instruments for various scientific and technological missions. These include communications satellites like Starlink; space stations such as the ISS; scientific satellites like the Hubble; Earth observation satellites from companies like Planet Labs, Umbra, and HawkEye 360; GPS; miniature CubeSats for education and research; and military/defense satellites.

Loading next visibility...
Identifier
57356, 2023-099AE
Orbit
LEO
Country
Flag of USUS
Related business
Manufacturer
SpaceX/Seattle
Mission
Operational Commercial Communications
Bus & Motor
STARLINK, Unknown motor
Mass
305 kg wet, ~290 kg dry
Launch date (UTC)
2023-07-16 (3 years ago)
Launch vehicle
FALCON 9
Launch site
Air Force Eastern Test Range (AFETR)
Object type
Payload
Rocket body
Debris
Shape & HBR
Box + 1 Pan, 10.1 m
Radar Cross Section
11.087 m², Large (>1 m²)

Expand to show TLE details & history
Last TLE update: 2 days ago

TLE from 2 days ago
0 STARLINK-6355
1 57356U 23099AE  26171.00033597 -.00000567  00000-0 -11076-4 0  9992
2 57356  43.0032  24.1173 0001321 267.4383  92.6318 15.27575747161847
Epoch: 2026-06-20T00:00Z
TLE epoch observation values (Epoch: 2026-06-20T00:00:29.027Z)
Latitude
Longitude
115.77512°
Altitude
482.879 km
Speed
7.626 km/s
True Right ascension
01h 36m 28s
True Declination
0° 00' 00"
Sunlit
Object was in daylight at epoch
Visualization orbit readout
Latitude
Unknown
Longitude
Unknown
Altitude
Unknown
Speed
Unknown
Apparent Right ascension
Unknown
Apparent Declination
Unknown
Sunlit
N/A
Visualization observer readout
Local Sidereal Time
21:26:18
Azimuth
Unknown
Elevation
Unknown
Doppler factor
Unknown
Orbital elements
Apogee altitude
485.913 km
Perigee altitude
484.1 km
Semi-major axis
6,863.143 km
Eccentricity
0.00013
Inclination
43.0032°
RAAN
24.1173°
Arg. of periapsis
267.4383°
True anomaly
92.64692°
Mean anomaly
92.6318°
Eccentric anomaly
92.63936°
Mean motion
3.81732 °/min
Orbital period
94.31 mins
BSTAR
-0.000011076
Loading maneuver chart data...
Computing Atmospheric mass density...
Loading historical data...
Loading historical data...
Loading historical data...
Loading historical data...
Loading historical data...
Loading historical data...
Loading historical data...

Documentation

Showing up to 5 results
|